Regional Weather Roundup
Issued by NWS Charleston, WV

Home | Current Version | Previous Version | Graphics & Text | Print | Product List | Glossary Off
Versions: 1 2 3 4 5 6 7 8 9 10 11 12 13 14 15 16 17 18 19 20 21 22 23 24 25 26 27 28 29 30 31 32 33 34 35 36 37 38 39 40 41 42 43 44 45 46 47 48 49 50

000
ASUS41 KRLX 290710
RWRRLX
West Virginia Regional Weather Roundup
National Weather Service Charleston WV
200 AM EST MON DEC 29 2014

Note: "fair" indicates few or no clouds below 12,000 feet with no
significant weather and/or obstructions to visibility.

WVZ003-290800-
Northern Panhandle of West Virginia

CITY           SKY/WX    TMP DP  RH WIND       PRES   REMARKS
WHEELING       CLOUDY    34  30  85 NW3       30.16R
$$

WVZ009-290800-
Northwest West Virginia

CITY           SKY/WX    TMP DP  RH WIND       PRES   REMARKS
PARKERSBURG    FOG       32  30  92 CALM      30.20R VSB 1/2
$$

WVZ006-290800-
Western West Virginia

CITY           SKY/WX    TMP DP  RH WIND       PRES   REMARKS
HUNTINGTON     CLOUDY    35  33  92 N5        30.17R
$$

WVZ015-290800-
West Central West Virginia

CITY           SKY/WX    TMP DP  RH WIND       PRES   REMARKS
CHARLESTON     CLOUDY    37  34  89 CALM      30.16R
$$

WVZ022-031-290800-
North Central West Virginia

CITY           SKY/WX    TMP DP  RH WIND       PRES   REMARKS
CLARKSBURG     CLOUDY    35  33  92 N3        30.15S
MORGANTOWN     CLOUDY    34  30  85 CALM      30.15F FOG
$$

WVZ025-035-042-045-290800-
Southern West Virginia

CITY           SKY/WX    TMP DP  RH WIND       PRES   REMARKS
BECKLEY        FOG       37  36  96 N5        30.08R VSB 1
LOGAN          FOG       37  37 100 NE3       30.12R VSB<1/4
BLUEFIELD      CLOUDY    42  39  89 CALM      30.06F FOG
LEWISBURG      CLOUDY    42  38  86 CALM      30.08R
$$

WVZ047-290800-
Northern Mountains of West Virginia

CITY           SKY/WX    TMP DP  RH WIND       PRES   REMARKS
ELKINS         CLOUDY    34  33  96 CALM      30.11S
$$

WVZ052-290800-
Eastern Panhandle of West Virginia

CITY           SKY/WX    TMP DP  RH WIND       PRES   REMARKS
MARTINSBURG    CLOUDY    42  26  53 N7        30.15R
PETERSBURG     CLOUDY    40  31  70 E3        30.14R
$$


USA.gov is the U.S. government's official web portal to all federal, state and local government web resources and services.